This is the latest recevied weather packets stored in our database for station/object KD8DLP-13. If no packets are shown the sender has not sent any weather packets the latest 10 day(s).
| Time | Temp. | Humidity | Pressure | Rain* | Wind** | Luminosity | Snow |
|---|---|---|---|---|---|---|---|
| 1777845850 | 13.89° C | 61% | 1008.8 hPa | 0 mm | - | 195 W/m² | - |
| 1777845548 | 13.89° C | 61% | 1008.8 hPa | 0 mm | - | 116 W/m² | - |
| 1777845244 | 13.89° C | 60% | 1009.3 hPa | 0 mm | - | 163 W/m² | - |
| 1777844942 | 14.44° C | 62% | 1009.3 hPa | 0 mm | - | 200 W/m² | - |
| 1777844639 | 13.33° C | 64% | 1009.3 hPa | 0 mm | - | 392 W/m² | - |
| 1777844336 | 12.78° C | 66% | 1009.3 hPa | 0 mm | - | 261 W/m² | - |
| 1777844034 | 12.78° C | 67% | 1009.5 hPa | 0 mm | - | 171 W/m² | - |
| 1777843731 | 12.78° C | 66% | 1009.5 hPa | 0 mm | - | 191 W/m² | - |
| 1777843429 | 12.22° C | 68% | 1009.4 hPa | 0 mm | - | 163 W/m² | - |
| 1777843125 | 12.22° C | 68% | 1009.6 hPa | 0 mm | - | 147 W/m² | - |
| 1777842822 | 12.22° C | 68% | 1009.6 hPa | 0 mm | - | 136 W/m² | - |
| 1777842517 | 11.67° C | 69% | 1009.8 hPa | 0 mm | - | 115 W/m² | - |
| 1777842215 | 11.67° C | 69% | 1009.9 hPa | 0 mm | - | 121 W/m² | - |
| 1777841910 | 11.67° C | 70% | 1009.6 hPa | 0 mm | - | 118 W/m² | - |
| 1777841607 | 11.67° C | 69% | 1009.8 hPa | 0 mm | - | 107 W/m² | - |
| 1777841303 | 11.67° C | 70% | 1009.9 hPa | 0 mm | - | 118 W/m² | - |
| 1777841001 | 11.67° C | 71% | 1009.8 hPa | 0 mm | - | 134 W/m² | - |
| 1777840698 | 11.11° C | 72% | 1010 hPa | 0 mm | - | 137 W/m² | - |
| 1777840395 | 11.11° C | 73% | 1009.9 hPa | 0 mm | - | 130 W/m² | - |
| 1777840092 | 11.11° C | 73% | 1010 hPa | 0 mm | - | 121 W/m² | - |
| 1777839790 | 11.11° C | 74% | 1010.2 hPa | 0 mm | - | 113 W/m² | - |
| 1777839488 | 11.11° C | 75% | 1010.4 hPa | 0 mm | - | 123 W/m² | - |
| 1777839185 | 10.56° C | 76% | 1010.5 hPa | 0 mm | - | 135 W/m² | - |
| 1777838882 | 10.56° C | 78% | 1010.4 hPa | 0 mm | - | 124 W/m² | - |
| 1777838578 | 10.56° C | 78% | 1010.6 hPa | 0 mm | - | 148 W/m² | - |
* Rain latest hour (hover to see other rain measurements)
** Current wind speed in m/s (hover to see current wind gust speed)